Volver al catálogo

STARLINK-32596

ActivoComunicacionesVLEO
NORAD 62316·PAYLOAD·🇺🇸 United States

Lanzado Dec 13, 2024 desde Vandenberg Space Force Base

Loading…

Próximos Pases (próximas 24 horas)

TLE

ActualizadoSource: CelesTrak SupGP

Época: Sep 15, 2026, 02:12 UTC

1 62316C 24239R   26258.09215278 -.00002319  00000+0 -68516-4 0  2589
2 62316  53.1602  30.6879 0001056  78.8915 197.9061 15.34389854    14

Sigue STARLINK-32596 en tiempo real con AllMySat

Download on the App Store